RH
100 100 85 100 100 100 93 96 100 83 93 95 91 82 66 50 48 56 63 63 59 56 45 42 42 55 55 61 64 72 65 79 84 88 87 85 85 100 99 97 100 100 100
100 97 95 100 100 100 86 97 90 90 92 87 84 73 60 42 31 36 30 19 14 12 14 13 14 16 18 24 30 34 42 53 52 45 39 36 37 31 53 68 89 100 100
93 100 96 95 100 100 100 100 93 95 100 93 78 50 36 25 15 11 10 8 7 8 8 8 9 10 10 11 11 11 12 13 14 15 18 17 24 59 83 83 92 100 100
100 89 100 100 100 95 100 100 86 100 98 83 56 24 12 9 8 8 7 7 8 8 8 9 11 9 15 17 14 17 16 20 21 24 30 35 72 100 99 83 96 100 100
100 100 100 100 100 100 100 89 97 99 83 55 20 8 7 8 8 7 7 7 9 9 11 15 18 31 30 44 40 40 48 44 53 60 65 77 91 100 96 88 100 100 100
100 100 100 100 100 100 93 87 99 82 56 21 8 7 8 7 7 7 7 8 10 11 19 26 39 60 54 41 64 67 73 80 88 75 85 87 99 100 93 95 100 100 100
100 100 100 100 88 84 86 97 83 57 22 7 7 7 7 7 7 8 7 9 11 14 20 34 45 67 72 83 98 52 61 73 82 90 93 98 96 98 98 100 100 92 89
100 100 100 87 88 80 87 88 56 28 9 8 7 7 7 7 8 8 8 10 12 16 27 41 53 80 90 89 100 100 100 100 100 99 100 100 100 100 99 100 100 100 100
100 99 100 94 77 76 71 55 31 11 10 7 7 7 7 6 8 9 9 10 16 22 39 50 64 92 100 100 100 100 100 100 100 100 100 100 93 96 100 100 100 100 100
88 98 84 76 65 56 43 29 10 12 9 6 7 7 7 8 8 10 11 13 15 20 39 59 73 88 100 100 100 100 100 100 100 100 100 100 100 100 100 99 100 99 100
80 76 74 55 48 37 23 10 12 12 7 7 7 7 8 8 8 10 14 14 15 18 34 48 66 80 100 100 100 100 100 100 100 100 100 100 100 100 100 100 98 99 96
70 89 64 49 33 22 10 11 13 10 7 7 7 6 8 8 8 11 14 15 15 20 24 38 48 65 76 91 100 100 94 100 99 99 98 100 100 97 100 100 100 100 100
87 83 53 38 25 10 11 12 13 9 8 7 7 7 8 9 10 13 15 18 22 24 23 29 60 70 78 83 89 93 98 96 100 93 92 88 89 79 77 77 73 81 77
71 50 36 28 12 11 11 12 12 8 8 8 8 8 8 9 13 16 16 20 26 32 32 33 47 73 76 82 79 91 95 98 100 95 95 94 83 80 95 93 86 85 84
42 39 27 14 11 11 11 13 12 9 10 9 9 12 12 9 16 22 19 24 29 32 38 40 45 67 86 90 92 97 100 100 100 100 100 95 94 98 95 96 100 100 99
36 28 14 12 12 12 12 14 11 10 10 11 11 12 16 14 23 27 27 29 38 42 45 64 77 74 78 85 90 93 95 99 99 97 96 97 100 99 98 100 100 100 99
26 14 12 12 12 12 12 13 11 10 11 12 12 12 16 24 30 38 35 40 51 51 59 77 80 82 84 86 90 95 98 93 99 99 99 100 100 100 100 100 100 100 98
13 12 12 12 12 12 12 14 12 11 12 13 16 15 18 32 42 44 50 51 61 64 65 70 78 82 77 81 86 90 94 98 100 100 100 100 100 100 100 100 100 99 99
13 13 11 11 11 12 13 15 13 12 14 15 18 19 22 29 40 55 61 63 63 69 72 75 79 86 90 98 92 91 91 95 100 100 100 100 100 100 100 100 100 100 100
14 14 12 11 11 12 13 15 15 14 14 16 19 26 28 29 33 43 56 72 73 69 70 63 67 78 91 95 98 99 100 99 92 93 95 96 96 94 94 95 100 100 100
15 14 12 12 11 12 12 14 15 13 13 13 16 22 27 29 32 41 49 50 60 81 74 68 69 65 70 82 92 96 94 94 95 100 100 100 100 99 96 100 100 96 97
14 14 13 12 12 12 13 14 15 14 14 15 14 15 18 23 26 34 37 39 44 42 54 67 67 72 76 76 78 82 90 94 92 97 100 100 100 100 100 100 98 96 97
15 13 12 13 13 13 14 14 16 16 14 13 13 15 17 18 20 25 26 32 34 38 41 48 48 56 63 68 79 85 87 85 87 93 96 99 99 100 99 99 99 99 95
16 13 13 13 13 14 16 16 16 17 16 15 14 14 15 16 17 18 20 24 28 33 39 42 41 41 45 54 63 71 77 81 84 89 94 96 96 96 96 94 93 91 88
15 14 14 14 14 15 17 17 17 17 18 18 17 17 16 16 17 18 19 20 22 24 27 30 34 35 34 38 46 56 65 73 81 85 88 89 88 84 83 85 86 83 84
15 14 15 15 15 14 16 17 18 18 18 20 20 18 18 18 18 19 21 21 20 21 22 24 28 34 38 40 40 40 41 45 49 53 58 63 67 67 69 74 79 79 75
Wind_Speed
88 92 103 111 110 114 112 109 115 119 121 107 102 97 94 87 79 75 75 75 76 79 82 85 83 87 89 89 89 92 93 96 97 98 100 101 101 106 108 101 99 99 99
95 105 111 114 113 112 117 118 123 125 122 108 105 103 96 91 84 81 79 77 75 73 74 75 75 77 79 80 83 83 83 87 89 92 89 90 93 90 88 88 87 90 90
111 113 116 118 115 116 120 126 124 129 123 113 109 104 96 90 83 74 68 65 60 58 59 57 56 58 59 61 63 64 63 64 66 67 70 71 69 65 72 74 71 78 83
110 119 118 113 117 119 123 127 129 125 117 114 110 99 88 79 69 63 58 53 50 48 47 45 45 47 44 45 43 46 47 49 52 56 56 53 52 57 63 60 59 64 71
122 124 121 116 122 122 122 126 127 121 116 114 102 88 75 66 60 56 50 45 43 42 39 38 37 39 36 36 37 36 37 41 40 42 43 46 51 52 56 52 57 59 59
122 122 123 123 119 124 125 127 125 115 115 105 88 77 66 56 51 47 44 40 38 37 36 35 35 36 39 33 36 31 31 31 30 34 40 43 49 52 45 47 54 59 61
126 123 124 120 124 123 121 125 120 115 107 90 80 70 61 53 47 44 40 37 36 35 37 39 37 37 36 28 28 31 30 29 29 28 30 34 39 42 40 44 49 54 50
122 129 130 127 130 119 119 116 111 109 95 84 75 65 57 47 43 41 39 34 35 34 35 39 37 40 38 34 31 29 30 31 33 34 35 38 40 43 44 42 43 43 48
128 132 126 132 123 116 110 108 106 91 83 77 66 58 52 43 39 38 37 34 33 33 33 38 39 41 43 41 41 41 39 39 41 43 45 45 45 46 47 46 50 54 58
123 134 126 121 112 106 102 101 88 79 74 68 59 52 47 41 36 34 35 35 32 31 33 37 42 42 48 48 49 48 48 47 46 49 51 49 49 53 55 57 58 58 62
129 122 116 108 106 102 97 85 75 73 67 59 55 46 40 38 34 32 32 34 32 30 33 39 42 45 49 50 56 59 59 57 58 58 58 59 60 60 62 64 64 66 67
121 118 110 106 103 97 85 75 69 66 58 53 51 44 37 36 31 30 30 33 32 31 32 37 37 44 45 46 46 54 59 65 65 63 63 64 65 67 70 68 69 73 73
115 111 108 104 98 87 75 68 63 58 52 49 45 40 33 34 30 28 29 30 31 32 34 33 37 45 46 48 52 54 53 58 66 69 69 69 71 68 66 64 67 70 68
107 108 103 99 89 79 70 61 58 52 47 46 41 37 32 31 27 28 28 30 32 33 33 32 36 41 43 50 51 48 48 52 54 58 68 71 70 62 55 51 45 44 45
105 103 98 90 80 71 64 57 54 48 44 43 38 35 33 30 28 28 28 28 29 29 30 31 30 37 40 44 43 42 45 48 49 50 50 52 49 44 43 39 40 38 37
102 99 88 80 73 65 58 53 49 45 43 41 38 34 33 31 29 29 30 29 28 28 29 29 31 34 36 38 37 38 39 42 44 45 45 43 42 39 39 39 41 41 41
95 88 78 73 67 60 55 50 46 43 40 40 39 34 31 31 30 31 31 31 31 30 29 32 33 36 37 38 38 40 43 43 42 41 40 41 41 43 43 43 45 45 45
86 79 73 66 61 55 51 49 44 42 40 40 39 37 32 29 32 33 33 34 35 35 36 35 36 38 40 42 43 43 43 43 42 43 45 46 46 47 49 48 48 48 48
78 74 70 61 55 50 47 46 44 42 40 40 39 38 35 33 31 33 36 38 40 42 42 43 43 41 42 41 42 43 45 45 47 48 48 49 48 49 52 53 53 52 51
71 69 67 59 50 46 42 41 40 41 41 41 40 40 40 39 35 34 37 40 44 46 47 48 47 48 49 49 50 50 51 49 49 49 50 51 51 51 52 52 51 52 53
69 65 62 57 50 45 42 39 39 38 39 40 39 41 41 42 42 41 41 42 42 45 50 50 50 50 51 52 53 53 53 52 51 49 51 52 53 53 53 54 55 55 57
63 60 57 53 50 44 41 40 38 37 37 39 40 40 40 42 44 44 45 46 46 46 46 49 51 53 53 52 54 56 56 57 57 56 56 57 58 58 58 58 57 57 58
59 56 52 50 47 44 41 39 38 38 38 37 36 38 41 41 41 43 46 45 46 47 45 46 46 46 52 55 56 56 58 59 60 60 61 61 61 61 61 61 60 60 60
56 54 50 47 45 42 41 40 39 38 37 37 37 38 39 39 41 42 42 42 44 45 47 48 48 47 48 51 52 54 58 59 59 59 60 60 60 60 60 60 61 62 62
52 50 49 47 43 41 40 40 40 39 38 37 37 37 38 39 39 40 40 41 42 44 45 46 46 46 46 46 48 50 52 56 59 61 62 62 62 62 62 61 61 62 62
49 48 47 46 44 42 40 40 39 39 38 37 37 36 36 37 39 39 39 39 41 42 42 43 43 44 46 47 48 49 50 51 54 56 58 60 61 61 59 59 59 59 59
Wind_Direction
314 315 314 317 319 322 322 322 322 323 326 322 319 316 314 308 304 299 293 286 280 275 271 267 265 264 264 263 262 261 262 262 262 262 261 261 260 258 257 255 255 257 257
314 314 318 319 318 320 321 320 322 324 324 319 319 317 313 307 302 297 291 284 278 275 271 269 266 264 262 260 259 260 260 260 259 259 258 256 254 254 254 252 250 251 253
315 315 317 317 319 318 319 320 321 322 321 318 317 314 308 303 299 295 288 283 281 277 272 267 263 258 256 254 255 256 256 254 252 250 248 249 248 245 244 245 246 246 248
315 318 317 317 319 319 318 319 321 322 319 317 314 310 305 301 298 293 288 285 281 275 271 267 261 258 255 253 249 248 248 248 247 245 244 243 240 240 244 243 242 244 247
318 318 319 318 317 318 318 319 321 319 316 314 311 307 305 303 298 291 288 284 279 275 271 265 262 260 257 251 251 249 247 248 245 240 236 235 229 233 243 241 242 247 249
315 317 315 316 317 316 317 320 318 316 314 312 309 306 305 299 294 290 287 281 276 270 263 256 251 252 256 247 241 237 242 243 235 235 232 228 224 235 243 244 244 244 246
315 314 316 314 315 317 318 320 317 314 312 310 309 309 306 301 296 292 285 279 272 264 253 249 242 240 241 240 249 238 231 232 236 238 239 234 241 249 253 252 251 251 257
313 313 315 315 316 317 318 317 314 312 310 308 307 307 304 298 294 289 284 276 267 259 249 240 239 230 235 232 235 235 249 250 248 243 245 245 244 242 244 247 249 249 248
314 315 315 315 316 317 316 315 313 309 307 304 305 303 300 296 292 286 281 273 260 254 244 238 234 232 231 233 230 232 232 240 249 247 248 247 246 248 248 247 248 249 251
315 314 314 315 316 314 314 313 310 306 304 303 302 301 297 293 288 280 275 267 257 248 242 235 233 230 229 233 233 234 236 242 244 246 249 251 253 255 256 256 255 256 258
314 315 316 315 314 314 314 311 309 306 304 301 298 298 294 289 283 278 269 262 255 241 235 234 233 232 229 233 236 235 235 236 240 245 246 248 249 253 255 257 259 260 262
314 316 316 315 313 313 312 311 308 305 303 300 299 299 292 290 283 276 267 262 255 247 240 235 235 234 234 237 239 241 241 242 243 245 248 251 253 254 256 260 262 262 265
314 315 316 313 313 313 312 310 307 304 301 300 298 295 293 286 282 276 268 259 255 249 244 234 230 235 237 240 244 245 246 247 245 250 249 253 256 259 264 268 265 265 264
313 314 313 313 313 312 312 308 304 302 299 298 295 294 288 283 280 274 268 258 250 248 248 243 232 232 236 240 244 247 247 249 251 251 253 257 262 269 268 265 265 264 263
313 313 313 312 311 311 310 307 304 300 296 293 293 291 287 283 279 274 269 258 251 247 244 241 235 233 234 236 239 241 239 242 246 250 253 256 258 255 252 256 260 261 261
312 311 312 311 310 308 306 304 300 296 293 290 288 286 285 283 278 273 269 258 253 247 244 233 230 232 232 235 235 238 241 244 247 249 250 251 253 256 258 256 256 255 257
311 310 311 309 308 305 304 301 299 294 289 286 285 283 279 278 276 269 268 257 255 249 243 238 234 233 234 234 235 237 240 243 247 254 252 252 254 255 255 255 257 258 261
310 310 309 308 306 304 302 300 299 293 288 285 283 282 278 272 271 267 264 258 253 251 250 248 245 244 242 241 240 243 245 246 250 251 251 252 254 255 256 257 258 260 262
309 308 307 306 304 302 300 299 297 291 285 282 280 279 277 272 267 264 263 259 254 252 250 250 249 249 250 253 255 255 254 251 250 248 249 250 252 252 253 254 256 258 260
306 305 305 304 302 299 296 295 292 287 284 280 277 275 273 273 269 265 260 259 260 257 254 252 249 248 249 250 251 254 257 258 256 253 252 251 254 254 254 255 257 260 263
304 303 303 302 301 299 296 293 291 284 279 276 271 269 268 269 267 265 262 260 256 258 261 261 260 256 249 248 250 253 255 256 256 256 257 259 259 259 259 261 264 265 265
301 301 301 300 299 298 295 293 291 286 281 279 278 274 269 266 267 266 265 263 262 261 259 260 261 259 257 255 254 253 253 254 255 256 257 259 261 262 263 264 264 266 267
300 301 300 299 297 296 295 294 291 289 288 283 277 274 273 272 270 269 267 264 263 264 265 264 260 256 255 255 254 255 255 254 254 256 257 258 261 262 264 266 266 266 266
298 299 298 297 295 294 293 293 290 289 287 285 282 278 273 271 268 266 265 265 264 264 263 262 262 258 256 253 253 254 253 254 255 255 256 258 259 261 262 263 265 267 268
297 296 296 296 294 292 291 289 288 286 286 285 283 281 276 274 273 271 269 266 264 262 261 260 261 261 259 257 256 255 253 252 252 253 255 257 259 260 261 264 266 268 269
294 294 293 293 292 291 289 287 284 283 282 283 283 280 279 276 273 271 268 266 265 263 263 262 261 260 260 260 258 258 258 257 257 257 257 259 260 262 264 265 267 268 269